Baudette, MN

6:48 PM CDT on July 24, 2017 (GMT -0500)
Baudette International

Weather History for KBDE - April, 2014

Change the Weather History Date:

Sunday, April 13, 2014

  Actual Average Record
Temperature  
Mean Temperature 28 °F -  
Max Temperature 34 °F 50 °F 77 °F (2003)
Min Temperature 21 °F 28 °F -1 °F (1950)
Degree Days  
Heating Degree Days 36    
Moisture  
Dew Point 25 °F    
Average Humidity 84    
Maximum Humidity 100    
Minimum Humidity 60    
Precipitation  
Precipitation 0.00 in - - ()
Sea Level Pressure  
Sea Level Pressure 29.98 in    
Wind  
Wind Speed 12 mph (NW)    
Max Wind Speed 23 mph    
Max Gust Speed 32 mph    
Visibility 8 miles    
Events Snow    
Averages and records for this station are not official NWS values.
T = Trace of Precipitation, MM = Missing Value Source: NWS Daily Summary

Daily Weather History Graph

Daily Weather History Graph

Search for Another Location

Airport or City:

Trip Planner

Search our weather history database for the weather conditions in past years. The results will help you decide how hot, cold, wet, or windy it might be!

Date:

Astronomy

Apr. 13, 2014 Rise Set
Actual Time 6:31 AM CDT 8:07 PM CDT
Civil Twilight 5:58 AM CDT 8:40 PM CDT
Nautical Twilight 5:18 AM CDT 9:20 PM CDT
Astronomical Twilight 4:34 AM CDT 10:04 PM CDT
Moon 6:40 PM CDT (4/13) 5:39 AM CDT (4/13)
Length of Visible Light 14h 41m
Length of Day
13h 35m
Waxing Gibbous, 97% of the Moon is Illuminated
Apr 13
Waxing Gibbous
Apr 15
Full
Apr 22
Last Quarter
Apr 29
New
May 6
First Quarter

Hourly Weather History & Observations

Time (CDT) Temp. Windchill Dew Point Humidity Pressure Visibility Wind Dir Wind Speed Gust Speed Precip Events Conditions
12:03 AM 36.0 °F 31.1 °F 36.0 °F 100% 29.78 in 1.2 mi SW 5.8 mph - N/A   Overcast
12:11 AM 36.0 °F 27.5 °F 36.0 °F 100% 29.78 in 2.0 mi NW 12.7 mph 17.3 mph N/A   Overcast
12:20 AM 36.0 °F 29.6 °F 35.1 °F 97% 29.79 in 7.0 mi NW 8.1 mph - N/A   Overcast
12:31 AM 35.1 °F 26.9 °F 35.1 °F 100% 29.79 in 1.8 mi NW 11.5 mph - N/A   Overcast
12:36 AM 35.1 °F 25.9 °F 35.1 °F 100% 29.79 in 1.0 mi NW 13.8 mph 19.6 mph N/A   Overcast
12:53 AM 34.0 °F 26.6 °F 34.0 °F 100% 29.84 in 1.5 mi WNW 9.2 mph - N/A   Overcast
12:59 AM 34.0 °F 25.5 °F 33.1 °F 96% 29.80 in 3.0 mi WNW 11.5 mph 19.6 mph N/A   Overcast
1:53 AM 33.1 °F 24.4 °F 32.0 °F 96% 29.83 in 7.0 mi WNW 11.5 mph 17.3 mph N/A   Overcast
2:53 AM 32.0 °F 23.6 °F 30.9 °F 96% 29.84 in 10.0 mi WNW 10.4 mph 18.4 mph N/A   Overcast
3:00 AM 32.0 °F 23.6 °F 30.9 °F 96% 29.81 in 10.0 mi WNW 10.4 mph 18.4 mph N/A   Overcast
3:20 AM 32.0 °F 22.5 °F 30.0 °F 92% 29.82 in 10.0 mi WNW 12.7 mph 21.9 mph N/A   Overcast
3:53 AM 32.0 °F 23.6 °F 30.0 °F 92% 29.87 in 10.0 mi WNW 10.4 mph 18.4 mph N/A   Overcast
4:53 AM 32.0 °F 24.2 °F 28.9 °F 88% 29.89 in 10.0 mi WNW 9.2 mph 16.1 mph N/A   Overcast
5:53 AM 30.9 °F 22.8 °F 28.0 °F 89% 29.93 in 10.0 mi WNW 9.2 mph - N/A   Overcast
6:36 AM 28.9 °F 17.7 °F 26.1 °F 89% 29.90 in 10.0 mi NW 15.0 mph 23.0 mph N/A   Overcast
6:53 AM 28.9 °F 17.7 °F 26.1 °F 89% 29.95 in 10.0 mi WNW 15.0 mph 21.9 mph N/A   Overcast
7:53 AM 28.0 °F 18.6 °F 25.0 °F 88% 29.98 in 10.0 mi WNW 10.4 mph 21.9 mph N/A   Overcast
8:53 AM 27.0 °F 14.7 °F 24.1 °F 89% 30.00 in 10.0 mi NW 16.1 mph 24.2 mph N/A   Overcast
9:53 AM 27.0 °F 12.8 °F 23.0 °F 85% 30.02 in 10.0 mi NW 21.9 mph 26.5 mph N/A   Overcast
10:53 AM 27.0 °F 13.5 °F 23.0 °F 85% 30.04 in 10.0 mi NW 19.6 mph - N/A   Overcast
11:53 AM 28.0 °F 15.7 °F 21.9 °F 78% 30.06 in 10.0 mi NW 17.3 mph 25.3 mph N/A   Overcast
12:10 PM 27.0 °F 12.8 °F 21.0 °F 78% 30.01 in 10.0 mi NW 21.9 mph - N/A   Overcast
12:53 PM 27.0 °F 12.5 °F 21.0 °F 78% 30.07 in 10.0 mi NNW 23.0 mph 32.2 mph N/A   Overcast
1:53 PM 27.0 °F 13.9 °F 21.0 °F 78% 30.08 in 10.0 mi NW 18.4 mph 29.9 mph N/A   Overcast
2:53 PM 28.0 °F 15.3 °F 21.0 °F 75% 30.11 in 10.0 mi NNW 18.4 mph - N/A   Overcast
3:53 PM 28.0 °F 16.5 °F 21.0 °F 75% 30.15 in 10.0 mi North 15.0 mph - N/A   Overcast
4:37 PM 28.9 °F 16.9 °F 19.9 °F 69% 30.08 in 10.0 mi NNW 17.3 mph 24.2 mph N/A   Overcast
4:53 PM 28.9 °F 17.3 °F 19.0 °F 67% 30.13 in 10.0 mi NNW 16.1 mph - N/A   Overcast
5:53 PM 28.0 °F 14.6 °F 19.9 °F 72% 30.14 in 10.0 mi NNW 20.7 mph 32.2 mph 0.00 in Snow Light Snow
6:53 PM 28.4 °F 16.2 °F 19.4 °F 69% 30.10 in 10.0 mi NNW 17.3 mph 28.8 mph N/A   Overcast
7:53 PM 26.1 °F 12.7 °F 19.0 °F 75% 30.15 in 10.0 mi NNW 18.4 mph 25.3 mph 0.00 in   Scattered Clouds
8:53 PM 25.0 °F 13.6 °F 18.0 °F 75% 30.18 in 10.0 mi North 12.7 mph - N/A   Partly Cloudy
9:53 PM 25.0 °F 13.6 °F 17.1 °F 72% 30.18 in 10.0 mi NNW 12.7 mph - N/A   Overcast
10:53 PM 21.9 °F 8.7 °F 10.0 °F 60% 30.19 in 10.0 mi NNW 15.0 mph 24.2 mph N/A   Overcast
11:34 PM 21.0 °F 8.6 °F 10.0 °F 63% 30.13 in 10.0 mi NNW 12.7 mph - N/A   Scattered Clouds
11:53 PM 21.0 °F 8.1 °F 10.0 °F 63% 30.20 in 10.0 mi NNW 13.8 mph - N/A   Clear